Weather History for Sydney, NW

Change the Weather History Date:

Saturday, December 21, 2013

  Actual Average Record
Temperature  
Mean Temperature 76 °F -  
Max Temperature 82 °F 80 °F 93 °F (1997)
Min Temperature 70 °F 65 °F 57 °F (1999)
Cooling Degree Days 11    
Growing Degree Days 26 (Base 50)    
Moisture  
Dew Point 66 °F    
Average Humidity 75    
Maximum Humidity 88    
Minimum Humidity 43    
Precipitation  
Precipitation 0.00 in 0.14 in - ()
Sea Level Pressure  
Sea Level Pressure 29.97 in    
Wind  
Wind Speed 19 mph ()    
Max Wind Speed 29 mph    
Max Gust Speed 40 mph    
Visibility 6.5 miles    
Events      
Averages and records for this station are not official NWS values.
T = Trace of Precipitation, MM = Missing Value Source: Averaged Metar Reports

Daily Weather History Graph

Daily Weather History Graph

Search for Another Location

Airport:

Trip Planner

Search our weather history database for the weather conditions in past years. The results will help you decide how hot, cold, wet, or windy it might be!

Date:

Astronomy

Dec. 21, 2013 Rise Set
Actual Time 5:40 AM EST 8:05 PM EST
Civil Twilight 5:11 AM EST 8:35 PM EST
Nautical Twilight 4:35 AM EST 9:11 PM EST
Astronomical Twilight 3:56 AM EST 9:50 PM EST
Moon 10:27 PM EST (12/21) 8:52 AM EST (12/21)
Length of Visible Light 15h 23m
Length of Day
14h 25m
Waning Gibbous, 88% of the Moon is Illuminated
Dec 21
Waning Gibbous
Dec 26
Last Quarter
Jan 1
New
Jan 8
First Quarter
Jan 16
Full

Hourly Weather History & Observations

Time (EST) Temp. Heat Index Dew Point Humidity Pressure Visibility Wind Dir Wind Speed Gust Speed Precip Events Conditions
12:00 AM 80 °F - 63 °F 47% 29.89 in 16 mi NE 15.0 mph - -   Partly Cloudy
12:00 AM 80.6 °F 81.8 °F 62.6 °F 54% 29.89 in - NNE 15.0 mph - N/A   Clear
12:30 AM 82.4 °F 82.9 °F 60.8 °F 48% 29.86 in - NNE 12.7 mph - N/A   Clear
1:00 AM 81 °F - 62 °F 43% 29.86 in - North 10.4 mph - -  
1:00 AM 80.6 °F 81.8 °F 62.6 °F 54% 29.86 in - North 10.4 mph - N/A   Clear
1:30 AM 80.6 °F 81.8 °F 62.6 °F 54% 29.86 in - WSW 4.6 mph - N/A   Clear
2:00 AM 76 °F - 64 °F 59% 29.87 in - NE 9.2 mph - -  
2:00 AM 77.0 °F - 64.4 °F 65% 29.86 in - NE 9.2 mph - N/A   Clear
2:30 AM 75.2 °F - 66.2 °F 73% 29.89 in - SSW 12.7 mph - N/A   Clear
2:41 AM 75.2 °F - 66.2 °F 73% 29.92 in - South 18.4 mph 33.4 mph N/A   Clear
3:00 AM 75 °F - 67 °F 68% 29.93 in 9 mi South 25.3 mph - -   Haze
3:00 AM 75.2 °F - 66.2 °F 73% 29.92 in - South 25.3 mph - N/A   Clear
3:30 AM 73.4 °F - 66.2 °F 78% 29.92 in - South 28.8 mph - N/A   Clear
4:00 AM 72 °F - 66 °F 77% 29.93 in - South 27.6 mph - -  
5:00 AM 71 °F - 66 °F 80% 29.94 in - South 28.8 mph - -  
5:00 AM 71.6 °F - 66.2 °F 83% 29.92 in 6.2 mi South 28.8 mph - N/A   Scattered Clouds
5:13 AM 71.6 °F - 66.2 °F 83% 29.95 in 5.0 mi South 28.8 mph - N/A   Mostly Cloudy
5:30 AM 71.6 °F - 66.2 °F 83% 29.95 in 5.0 mi South 27.6 mph - N/A   Mostly Cloudy
6:00 AM 71 °F - 66 °F 78% 29.98 in 5 mi South 28.8 mph - -   Haze
6:00 AM 71.6 °F - 66.2 °F 83% 29.98 in 5.0 mi South 28.8 mph - N/A   Mostly Cloudy
6:15 AM 71.6 °F - 66.2 °F 83% 29.98 in 5.0 mi South 26.5 mph 38.0 mph N/A   Mostly Cloudy
6:30 AM 71.6 °F - 66.2 °F 83% 29.98 in 5.0 mi South 24.2 mph 35.7 mph N/A   Mostly Cloudy
7:00 AM 71 °F - 66 °F 78% 29.99 in - South 21.9 mph - -  
7:00 AM 71.6 °F - 66.2 °F 83% 29.98 in 5.0 mi South 21.9 mph 33.4 mph N/A   Scattered Clouds
7:30 AM 71.6 °F - 64.4 °F 78% 30.01 in 6.2 mi South 21.9 mph - N/A   Mostly Cloudy
8:00 AM 72 °F - 64 °F 69% 30.02 in - SSW 20.7 mph - -  
8:00 AM 71.6 °F - 64.4 °F 78% 30.01 in 6.2 mi SSW 20.7 mph - N/A   Mostly Cloudy
8:30 AM 73.4 °F - 64.4 °F 73% 30.01 in 6.2 mi SSW 21.9 mph - N/A   Mostly Cloudy
9:00 AM 74 °F - 64 °F 63% 30.03 in 9 mi South 19.6 mph - -   Haze
9:00 AM 73.4 °F - 64.4 °F 73% 30.01 in - South 19.6 mph - N/A   Clear
9:30 AM 75.2 °F - 64.4 °F 69% 30.01 in - South 23.0 mph - N/A   Clear
10:00 AM 74 °F - 65 °F 66% 30.02 in - South 24.2 mph - -  
10:00 AM 73.4 °F - 64.4 °F 73% 30.01 in - South 24.2 mph - N/A   Clear
10:30 AM 73.4 °F - 64.4 °F 73% 30.01 in - South 24.2 mph - N/A   Clear
11:00 AM 73 °F - 64 °F 67% 30.03 in - South 25.3 mph - -  
11:00 AM 73.4 °F - 64.4 °F 73% 30.01 in 6.2 mi South 25.3 mph - N/A   Scattered Clouds
11:07 AM 73.4 °F - 64.4 °F 73% 30.01 in 6.2 mi South 24.2 mph 35.7 mph N/A   Scattered Clouds
11:30 AM 73.4 °F - 64.4 °F 73% 30.01 in 6.2 mi South 26.5 mph 38.0 mph N/A   Partly Cloudy
12:00 PM 74 °F - 65 °F 67% 30.02 in 9 mi South 26.5 mph - -   Haze
12:00 PM 75.2 °F - 66.2 °F 73% 30.01 in - South 26.5 mph 38.0 mph N/A   Clear
12:30 PM 73.4 °F - 64.4 °F 73% 30.01 in - South 27.6 mph 39.1 mph N/A   Clear
1:00 PM 74 °F - 64 °F 65% 30.01 in - South 25.3 mph - -  
1:00 PM 73.4 °F - 64.4 °F 73% 30.01 in - South 25.3 mph 36.8 mph N/A   Clear
1:30 PM 73.4 °F - 64.4 °F 73% 30.01 in 6.2 mi South 27.6 mph 39.1 mph N/A   Partly Cloudy
2:00 PM 74 °F - 65 °F 68% 30.00 in - South 27.6 mph - -  
2:00 PM 73.4 °F - 66.2 °F 78% 29.98 in 6.2 mi South 27.6 mph 39.1 mph N/A   Partly Cloudy
2:30 PM 73.4 °F - 66.2 °F 78% 29.98 in 6.2 mi South 28.8 mph 40.3 mph N/A   Partly Cloudy
3:00 PM 74 °F - 67 °F 71% 29.99 in 9 mi South 26.5 mph - -   Haze
3:00 PM 73.4 °F - 66.2 °F 78% 29.98 in 6.2 mi South 26.5 mph 38.0 mph N/A   Partly Cloudy
3:30 PM 73.4 °F - 66.2 °F 78% 29.98 in 6.2 mi South 26.5 mph 38.0 mph N/A   Partly Cloudy
4:00 PM 74 °F - 66 °F 70% 29.98 in - South 25.3 mph - -  
4:00 PM 73.4 °F - 66.2 °F 78% 29.98 in 6.2 mi South 25.3 mph - N/A   Partly Cloudy
4:30 PM 73.4 °F - 66.2 °F 78% 29.98 in 6.2 mi South 26.5 mph - N/A   Partly Cloudy
5:00 PM 73 °F - 66 °F 72% 29.97 in - South 24.2 mph - -  
5:00 PM 73.4 °F - 66.2 °F 78% 29.95 in 6.2 mi South 24.2 mph - N/A   Partly Cloudy
5:30 PM 71.6 °F - 66.2 °F 83% 29.95 in 6.2 mi South 24.2 mph - N/A   Mostly Cloudy
6:00 PM 72 °F - 67 °F 81% 29.98 in 7 mi South 25.3 mph - -   Haze
6:00 PM 71.6 °F - 68.0 °F 88% 29.98 in 6.2 mi South 25.3 mph - N/A   Scattered Clouds
6:13 PM 71.6 °F - 68.0 °F 88% 29.98 in 6.2 mi South 24.2 mph - N/A   Mostly Cloudy
6:30 PM 71.6 °F - 66.2 °F 83% 29.98 in 6.2 mi South 23.0 mph - N/A   Mostly Cloudy
7:00 PM 71 °F - 67 °F 85% 30.00 in - South 21.9 mph - -  
7:00 PM 71.6 °F - 68.0 °F 88% 29.98 in 6.2 mi South 21.9 mph - N/A   Mostly Cloudy
7:30 PM 71.6 °F - 68.0 °F 88% 29.98 in 6.2 mi South 20.7 mph - N/A   Mostly Cloudy
8:00 PM 71 °F - 68 °F 88% 30.00 in - SSW 19.6 mph - -  
8:00 PM 71.6 °F - 68.0 °F 88% 29.98 in 5.6 mi SSW 19.6 mph - N/A   Mostly Cloudy
8:30 PM 71.6 °F - 68.0 °F 88% 30.01 in 6.2 mi SSW 15.0 mph - N/A   Mostly Cloudy
9:00 PM 71 °F - 68 °F 86% 30.01 in 7 mi SSW 17.3 mph - -   Haze
9:00 PM 71.6 °F - 68.0 °F 88% 30.01 in 6.2 mi SSW 17.3 mph - N/A   Mostly Cloudy
9:30 PM 71.6 °F - 68.0 °F 88% 30.01 in 6.2 mi SSW 15.0 mph - N/A   Mostly Cloudy
10:00 PM 71 °F - 68 °F 86% 30.02 in - SSW 12.7 mph - -  
10:00 PM 71.6 °F - 68.0 °F 88% 30.01 in 6.2 mi SSW 12.7 mph - N/A   Mostly Cloudy
10:30 PM 71.6 °F - 68.0 °F 88% 30.01 in 6.2 mi SW 11.5 mph - N/A   Mostly Cloudy
11:00 PM 71 °F - 67 °F 82% 30.02 in - SW 11.5 mph - -  
11:00 PM 71.6 °F - 66.2 °F 83% 30.01 in 6.2 mi SW 11.5 mph - N/A   Mostly Cloudy
11:30 PM 71.6 °F - 68.0 °F 88% 30.01 in 6.2 mi SW 10.4 mph - N/A   Mostly Cloudy